Hourly Data Report for March 05, 2021

OTTAWA INTL A
ONTARIO
Current Station Operator: NAVCAN

45°19'00.000" N
75°40'00.000" W
114.90 m
6106001
71628
YOW

Download Data

Hourly Data (March 2021)
Hourly Data Report for March 5, 2021
TIME
LST
Temp Definition
°C
Dew Point Definition
°C
Rel Hum Definition
%
Precip. Amount Definition
mm

Wind Dir Definition
10's deg

Wind Spd Definition
km/h
Visibility Definition
km
Stn Press Definition
kPa
Hmdx Definition


Wind Chill Definition


Weather Definition


00:00 -12.2 -19.3 56   29 29 24.1 100.06   -22 LegendNANA
01:00 -12.7 -19.8 56   29 32 24.1 100.05   -23 Mostly Cloudy
02:00 -13.0 -20.0 56   29 34 24.1 99.99   -24 Blowing Snow
03:00 -13.5 -20.6 56   30 35 24.1 99.91   -25 LegendNANA
04:00 -13.9 -21.3 54   29 24 24.1 99.91   -24 Blowing Snow
05:00 -14.4 -20.9 59   29 28 24.1 99.92   -25 LegendNANA
06:00 -15.0 -21.3 59   28 33 24.1 99.91   -27 LegendNANA
07:00 -15.4 -21.5 60   28 28 24.1 99.93   -26 Blowing Snow
08:00 -15.0 -21.2 60   28 23 24.1 99.89   -25 Blowing Snow
09:00 -14.0 -20.5 58   29 30 24.1 99.80   -25 Blowing Snow
10:00 -12.3 -19.8 54   28 27 24.1 99.73   -22 Blowing Snow
11:00 -11.0 -19.5 50   27 31 24.1 99.66   -21 LegendNANA
12:00 -8.5 -18.4 45   29 28 24.1 99.60   -17 Blowing Snow
13:00 -7.2 -17.2 45   30 31 24.1 99.53   -16 Mostly Cloudy
14:00 -6.6 -17.1 44   29 37 24.1 99.55   -16 Blowing Snow
15:00 -6.8 -16.8 45   29 31 24.1 99.59   -15 Blowing Snow
16:00 -6.0 -13.9 54   28 23 24.1 99.64   -13 Blowing Snow
17:00 -6.7 -14.6 54   32 31 24.1 99.77   -15 Blowing Snow
18:00 -8.0 -15.2 56   32 25 24.1 99.88   -16 Blowing Snow
19:00 -9.6 -17.1 55   32 28 24.1 99.99   -19 Blowing Snow
20:00 -10.5 -16.7 61   31 21 24.1 100.07   -19 LegendNANA
21:00 -9.8 -17.1 56   33 34 24.1 100.11   -20 Blowing Snow
22:00 -10.1 -16.4 60   31 25 24.1 100.14   -19 Blowing Snow
23:00 -10.5 -16.8 60   32 23 24.1 100.15   -19 LegendNANA

Notes on Data Quality.

Legend

  • E = Estimated
  • M = Missing
  • NA = Not Available*
  • [empty] = Indicates an unobserved value
Date modified: